[[{"header":{"parameterUnit":"m.s-1","parameterCategory":1,"la1":30.2991,"la2":30.254,"lo1":-89.0895,"lo2":-89.0444,"dy":0.0017,"dx":0.0017,"nx":28,"ny":28,"refTime":"2023-08-08T21:00:00:Z","depth":0,"parameterNumber":2,"parameterNumberName":"U-component_of_WINDS"},"data":[0,0,0,0,0,0,0,0,0,0,0,0,0,0,0,0,0,0,0,0,0,0,0,0,0,0,0,0,0,0,0,0,0,0,0,0,0,0,0,0,0,0,0,0,0,0,0,0,0,0,0,0,0,0,0,0,0,0,1.655,1.6551,0,1.6651,1.6652,1.6653,1.6639,1.6637,1.6635,1.6634,1.6741,1.6745,1.6749,0,0,0,0,0,0,0,0,0,0,0,0,0,1.6348,1.6352,1.655,1.6551,1.6553,1.6651,1.6652,1.6653,1.6639,1.6637,1.6635,1.6633,1.6739,1.6744,1.675,0,0,0,0,0,0,0,0,0,0,0,0,0,1.6441,1.6353,1.655,1.6557,1.6559,1.665,1.6652,1.6654,1.6639,1.6637,1.6634,1.6632,1.6738,1.6744,1.6751,1.6842,0,0,1.6771,1.6774,0,0,0,0,0,0,0,0,1.6436,1.6449,1.6555,1.6557,1.6559,1.663,1.662,1.6717,1.664,1.6609,1.6634,1.6631,1.6706,1.6715,1.674,1.6847,1.6852,1.6771,1.6775,1.6778,1.678,0,0,0,0,0,0,0,1.6429,1.6444,1.659,1.6556,1.6559,1.6556,1.6567,1.6638,1.6671,1.6612,1.6611,1.6623,1.6707,1.6733,1.6742,1.6854,1.6771,1.6777,1.6781,1.6784,1.7041,1.7043,0,0,0,0,0,0,1.6421,1.6439,1.6587,1.6593,1.649,1.6562,1.6574,1.661,1.667,1.6677,1.6625,1.6622,1.6723,1.6734,1.6746,1.6856,1.6778,1.6784,1.6788,1.7038,1.7041,1.7044,0,0,0,0,0,0,1.6416,1.6434,1.6583,1.6516,1.6535,1.6568,1.6609,1.6613,1.6639,1.668,1.6686,1.6646,1.6722,1.6736,1.6818,1.686,1.6787,1.6794,1.7034,1.7039,1.7043,1.7078,0,0,0,0,0,0,1.6411,1.6432,1.6467,1.6517,1.6538,1.6652,1.6611,1.6617,1.665,1.6647,1.6701,1.6708,1.6721,1.6808,1.6825,1.6867,1.6799,1.7031,1.7036,1.7041,1.7073,1.7083,1.7091,0,0,0,0,0,1.6403,1.6474,1.6469,1.6487,1.6582,1.6655,1.6667,1.668,1.6654,1.6689,1.6715,1.6706,1.6853,1.6817,1.6835,1.6881,1.7028,1.7035,1.7041,1.7069,1.7081,1.7091,0,0,0,0,0,0,1.643,1.6481,1.6476,1.6564,1.6605,1.6652,1.6697,1.6692,1.6742,1.6738,1.6752,1.6765,1.6847,1.6872,1.6831,1.6972,1.6937,1.6947,1.6952,1.6964,1.6973,1.6964,1.6804,0,0,0,0,0,1.6446,1.65,1.6542,1.6616,1.6637,1.6664,1.6696,1.6702,1.6745,1.6763,1.6795,1.6838,1.6894,1.6931,1.6984,1.7077,1.7088,1.7118,1.7127,1.7134,1.7142,1.7192,1.7205,1.7065,1.7065,1.7065,0,0,1.648,1.6514,1.6548,1.6622,1.6655,1.6711,1.6678,1.6739,1.6781,1.6773,1.685,1.6876,1.6925,1.7012,1.7052,1.7036,1.7184,1.7142,1.7147,1.7152,1.72,1.7213,1.7225,1.707,1.7069,1.7068,0,0,1.657,1.6602,1.6666,1.6699,1.6748,1.6765,1.6781,1.6829,1.6844,1.6923,1.6917,1.6968,1.7064,1.7099,1.7129,1.7232,1.7225,1.7249,1.7296,1.7344,1.7355,1.7365,1.74,1.7413,1.7258,1.7258,1.7258,0,1.6606,1.6689,1.6701,1.6762,1.6794,1.6788,1.6854,1.6885,1.695,1.6973,1.6954,1.7073,1.7106,1.7201,1.7225,1.7251,1.7269,1.7243,1.7353,1.7363,1.7372,1.7406,1.7419,1.726,1.726,1.726,1.726,0,1.6731,1.6789,1.6835,1.6895,1.6934,1.6997,1.7018,1.7056,1.7059,1.7078,1.7158,1.7197,1.7258,1.7281,1.7286,1.7377,1.7364,1.7349,1.7314,1.7387,1.742,1.7433,1.7264,1.7263,1.7262,1.7262,0,0,1.684,1.6905,1.6922,1.6949,1.7002,1.7047,1.7111,1.7168,1.72,1.7245,1.7298,1.7379,1.7364,1.7399,1.7407,1.745,1.7527,1.7429,1.743,1.7444,1.7628,1.7639,1.7654,1.7523,1.7526,1.7528,1.7624,0,1.6933,1.7043,1.7055,1.7153,1.7206,1.7201,1.7256,1.7295,1.7315,1.7364,1.7387,1.7443,1.742,1.744,1.7483,1.7508,1.7564,1.7502,1.7572,1.7575,1.7559,1.7671,1.7682,1.7771,1.7636,1.7639,1.764,0,1.7057,1.7104,1.7207,1.7252,1.7275,1.7324,1.7377,1.7424,1.7468,1.748,1.7518,1.752,1.7586,1.7549,1.7639,1.7597,1.7626,1.7644,1.7647,1.7654,1.7611,1.7679,1.78,1.7812,1.766,1.7659,1.7657,0,1.7124,1.7213,1.7286,1.731,1.7364,1.7399,1.7423,1.7465,1.7499,1.7546,1.7568,1.7624,1.7654,1.7697,1.7714,1.7686,1.7803,1.7768,1.7815,1.7814,1.7839,1.7837,1.7965,1.786,1.786,1.786,1.7859,0,1.7227,1.729,1.7316,1.7361,1.7432,1.7445,1.7515,1.7538,1.7575,1.7625,1.7625,1.7671,1.7692,1.7742,1.7757,1.7829,1.7843,1.7854,1.7857,1.7853,1.7852,1.7872,1.7866,1.7863,1.7862,1.7862,1.7861,0,1.7313,1.7333,1.7412,1.7457,1.747,1.752,1.7559,1.7602,1.7622,1.7684,1.77,1.7731,1.779,1.7811,1.7884,1.7893,1.7976,1.7975,1.7961,1.7961,1.8006,1.8001,1.8151,1.8171,1.8054,1.8055,1.8056,0,1.7376,1.7424,1.7474,1.7506,1.7532,1.7585,1.7619,1.7634,1.767,1.7724,1.7761,1.7819,1.7866,1.7961,1.799,1.8046,1.8045,1.8093,1.8053,1.8048,1.8044,1.804,1.8045,1.8101,1.8102,1.8103,1.8104,0,1.7486,1.7493,1.7542,1.7594,1.7635,1.7677,1.7718,1.7745,1.7767,1.7807,1.7866,1.7903,1.7976,1.8034,1.809,1.8117,1.8114,1.8116,1.813,1.8126,1.8115,1.812,1.798,1.8112,1.8112,1.8111,1.811,1.811,1.7561,1.7603,1.7644,1.7699,1.7731,1.7769,1.7812,1.7836,1.7885,1.7945,1.7952,1.8016,1.8059,1.8134,1.8163,1.8214,1.82,1.822,1.8225,1.823,1.8232,1.8108,1.8224,1.8224,1.8224,1.8224,1.8223,0,1.7669,1.7696,1.7745,1.7802,1.7845,1.7837,1.7883,1.7919,1.7974,1.8015,1.8061,1.8129,1.8185,1.8218,1.8275,1.8309,1.8309,1.8323,1.832,1.8326,1.8241,1.8223,1.8322,1.8322,1.8322,1.8322,1.8322,1.8322,1.773,1.7801,1.7813,1.79,1.7926,1.7987,1.8014,1.8049,1.8081,1.8156,1.8202,1.8224,1.8261,1.832,1.8371,1.838,1.84,1.8415,1.8423,1.8342,1.8332,1.8323,1.8306,1.842,1.842,1.8503,1.8504,1.8505]},{"header":{"parameterUnit":"m.s-1","parameterCategory":1,"la1":30.2991,"la2":30.254,"lo1":-89.0895,"lo2":-89.0444,"dy":0.0017,"dx":0.0017,"nx":28,"ny":28,"refTime":"2023-08-08T21:00:00:Z","depth":0,"parameterNumber":3,"parameterNumberName":"V-component_of_WINDS"},"data":[0,0,0,0,0,0,0,0,0,0,0,0,0,0,0,0,0,0,0,0,0,0,0,0,0,0,0,0,0,0,0,0,0,0,0,0,0,0,0,0,0,0,0,0,0,0,0,0,0,0,0,0,0,0,0,0,0,0,5.9119,5.9119,0,5.912,5.912,5.912,5.9025,5.9022,5.902,5.9017,5.9016,5.9018,5.902,0,0,0,0,0,0,0,0,0,0,0,0,0,5.9033,5.9035,5.9119,5.9119,5.9119,5.912,5.912,5.912,5.9025,5.9022,5.9019,5.9016,5.9015,5.9018,5.9021,0,0,0,0,0,0,0,0,0,0,0,0,0,5.9056,5.9035,5.9119,5.9072,5.9068,5.912,5.912,5.912,5.9026,5.9022,5.9018,5.9015,5.9014,5.9018,5.9021,5.9118,0,0,5.9032,5.9033,0,0,0,0,0,0,0,0,5.9054,5.9059,5.9079,5.9075,5.9071,5.9069,5.9089,5.9119,5.9027,5.9042,5.9017,5.9013,5.9036,5.9038,5.9046,5.9118,5.9118,5.9032,5.9034,5.9035,5.9036,0,0,0,0,0,0,0,5.9053,5.9058,5.9119,5.9079,5.9074,5.905,5.9049,5.9094,5.906,5.904,5.9033,5.9035,5.9033,5.9043,5.9045,5.9118,5.9032,5.9035,5.9037,5.9038,5.9269,5.9273,0,0,0,0,0,0,5.9058,5.9058,5.9119,5.9119,5.9053,5.9055,5.9054,5.9073,5.9059,5.9054,5.9038,5.903,5.9039,5.9041,5.9045,5.9157,5.9035,5.9039,5.9041,5.9265,5.927,5.9275,0,0,0,0,0,0,5.9057,5.9065,5.9119,5.9087,5.9092,5.906,5.9083,5.9075,5.9085,5.9058,5.9051,5.9054,5.9036,5.904,5.9101,5.9156,5.904,5.9043,5.926,5.9267,5.9272,5.9383,0,0,0,0,0,0,5.9055,5.9065,5.9101,5.9088,5.9094,5.9176,5.9086,5.9078,5.9091,5.9081,5.9071,5.9066,5.9033,5.9096,5.9104,5.9159,5.9046,5.9255,5.9263,5.927,5.9375,5.9393,5.9408,0,0,0,0,0,5.9052,5.9132,5.9104,5.9112,5.9139,5.9179,5.9182,5.9144,5.9096,5.9132,5.9115,5.9066,5.9149,5.9103,5.9111,5.9168,5.9252,5.9261,5.927,5.9367,5.9389,5.9408,0,0,0,0,0,0,5.915,5.9129,5.9098,5.9176,5.918,5.9163,5.9207,5.9168,5.9185,5.9175,5.9126,5.9125,5.9193,5.9186,5.9136,5.9261,5.9192,5.9203,5.9263,5.9283,5.93,5.9299,5.9049,0,0,0,0,0,5.9181,5.9217,5.9196,5.9266,5.9271,5.9239,5.9255,5.9226,5.9228,5.9229,5.9216,5.9219,5.9246,5.9264,5.9287,5.9374,5.937,5.9417,5.9433,5.9447,5.9457,5.9503,5.9523,5.9305,5.9305,5.9304,0,0,5.9245,5.9238,5.9263,5.9286,5.9286,5.9323,5.9241,5.9283,5.931,5.9235,5.9291,5.9283,5.9283,5.9357,5.9389,5.9354,5.9517,5.9459,5.947,5.9472,5.9514,5.9535,5.9553,5.9311,5.931,5.9309,0,0,5.938,5.9379,5.9438,5.9441,5.9442,5.9421,5.9436,5.9425,5.9417,5.9473,5.9418,5.9449,5.9496,5.9498,5.9506,5.9645,5.9601,5.9654,5.9741,5.9786,5.9803,5.9818,5.9867,5.9886,5.9664,5.9665,5.9665,0,5.9459,5.9513,5.9473,5.952,5.9532,5.9467,5.9527,5.9531,5.9539,5.9549,5.9509,5.9568,5.9564,5.9638,5.9672,5.9681,5.9695,5.9654,5.9804,5.9819,5.9832,5.9879,5.9897,5.9671,5.967,5.967,5.9669,0,5.961,5.9649,5.9697,5.9709,5.9726,5.9779,5.9746,5.9769,5.9738,5.9722,5.978,5.9773,5.9794,5.981,5.978,5.988,5.9858,5.9813,5.9741,5.986,5.9903,5.9921,5.968,5.9678,5.9676,5.9675,0,0,5.9805,5.9796,5.9814,5.982,5.9818,5.9847,5.9897,5.9919,5.9939,5.9948,5.9988,6.0031,5.9989,5.9998,5.9968,6.0007,6.0118,5.9956,5.9955,5.9986,6.0229,6.0263,6.0285,6.009,6.0093,6.0095,6.0229,0,5.9936,6.0022,5.9989,6.0077,6.0112,6.0053,6.0097,6.01,6.0087,6.0114,6.0098,6.0129,6.0071,6.0076,6.0113,6.0097,6.0166,6.0087,6.0126,6.0128,6.0127,6.0307,6.0343,6.0469,6.0245,6.0248,6.025,0,6.01,6.0118,6.021,6.0204,6.0217,6.0258,6.0275,6.0303,6.0306,6.0293,6.0305,6.0266,6.0315,6.0245,6.0311,6.0258,6.0273,6.0268,6.0271,6.0273,6.0196,6.0313,6.0509,6.0528,6.0276,6.0274,6.0272,0,6.0233,6.028,6.0341,6.0348,6.0342,6.0371,6.037,6.037,6.0385,6.0401,6.0411,6.0432,6.0443,6.046,6.0428,6.0381,6.0499,6.0427,6.0489,6.049,6.0516,6.0515,6.0716,6.0527,6.0526,6.0526,6.0525,0,6.0382,6.0441,6.0401,6.0439,6.0504,6.0465,6.0529,6.0521,6.0522,6.0557,6.0506,6.054,6.0497,6.0526,6.0502,6.0561,6.0566,6.0557,6.0549,6.0561,6.0562,6.0569,6.0559,6.0531,6.053,6.0529,6.0528,0,6.054,6.0516,6.058,6.057,6.0569,6.0617,6.0608,6.0643,6.0626,6.0671,6.068,6.0654,6.0686,6.0657,6.0687,6.0671,6.0749,6.0729,6.0749,6.0743,6.0807,6.0801,6.1019,6.1046,6.084,6.0842,6.0843,0,6.0637,6.0681,6.0677,6.0698,6.07,6.0734,6.0751,6.0714,6.0734,6.0742,6.0775,6.0804,6.0824,6.0879,6.0862,6.0886,6.0866,6.0941,6.0869,6.088,6.0867,6.0865,6.0869,6.0955,6.0957,6.0959,6.0961,0,6.081,6.0797,6.0823,6.0847,6.0869,6.0885,6.0897,6.0916,6.0879,6.0903,6.0937,6.0953,6.0986,6.1015,6.1033,6.1031,6.099,6.0984,6.1,6.1012,6.1021,6.1017,6.0788,6.0979,6.0977,6.0976,6.0975,6.0974,6.094,6.0977,6.0981,6.1013,6.1019,6.1032,6.1064,6.1053,6.1081,6.1105,6.1082,6.1123,6.1126,6.1147,6.115,6.118,6.1149,6.1172,6.1177,6.1183,6.1193,6.1017,6.1184,6.1183,6.1183,6.1182,6.1182,0,6.1111,6.1111,6.1141,6.1161,6.1186,6.1148,6.116,6.1183,6.122,6.1227,6.1249,6.1288,6.1316,6.1303,6.1328,6.1355,6.1337,6.1363,6.136,6.136,6.1219,6.1203,6.1377,6.1377,6.1377,6.1377,6.1377,6.1377,6.1203,6.1264,6.1252,6.1316,6.1315,6.1356,6.1366,6.1378,6.1383,6.143,6.1454,6.1445,6.1444,6.1469,6.1493,6.1488,6.15,6.1532,6.1521,6.1389,6.137,6.1352,6.1336,6.1535,6.1535,6.1659,6.166,6.1661]}]]